Wind_Speed
20 20 21 21 21 21 21 20 18 18 17 17 18 19 20 18 17 18 20 21 23 24 23 22 22 21 17 14 12 11 10 10 12 13 12 12 12 11 11 11 11 12 12 12 10 8 7 8 9 8 8 8 9 9 9 9 9 8 8 7 7 6 4 4 3 3 4 5 6 6 5 4 3 4 6 6 6 7 7 7 9 9 9 9 9
20 21 22 22 22 22 21 21 19 18 17 17 17 17 18 18 18 19 21 21 21 21 19 19 22 21 17 14 12 10 9 9 11 12 10 11 12 12 11 11 11 11 11 11 10 8 7 8 9 8 7 7 7 8 8 7 8 8 7 5 5 4 3 2 3 4 5 5 5 4 3 2 2 3 5 6 6 6 6 8 8 9 9 9 8
20 21 21 21 21 21 21 20 20 19 17 17 17 17 18 19 20 21 22 21 19 18 17 19 21 20 17 16 13 10 9 9 9 10 10 9 10 12 12 11 11 11 11 11 11 9 7 9 10 9 8 8 7 7 7 7 6 6 5 4 4 3 2 2 3 4 4 4 3 2 2 2 2 3 4 6 6 6 7 8 8 9 9 9 8
20 21 21 20 21 21 21 21 20 19 19 18 18 18 18 18 19 20 21 21 19 18 19 19 20 19 17 16 14 11 9 8 8 9 10 9 9 10 11 11 10 11 11 11 10 9 8 9 10 10 9 9 7 7 7 7 6 5 5 4 3 3 2 2 3 3 3 3 2 2 2 2 2 3 4 5 6 7 7 8 8 9 9 9 9
20 20 19 19 19 20 20 21 20 19 19 18 18 18 17 17 17 18 18 19 19 18 19 19 20 20 18 16 15 13 10 8 8 9 10 10 8 8 10 11 11 10 10 10 10 9 9 9 10 10 9 9 7 6 8 8 6 5 4 3 3 4 3 2 2 2 2 2 2 2 2 2 3 3 3 5 6 7 7 8 9 9 8 8 9
19 18 18 18 18 18 20 21 20 19 18 18 18 18 17 17 17 17 17 17 17 17 18 18 20 22 20 17 16 14 11 9 8 8 9 9 8 8 9 10 11 10 10 10 9 9 9 10 10 10 9 9 8 6 8 8 7 6 4 3 3 3 2 2 1 1 1 1 2 1 1 2 2 3 3 5 6 7 7 7 8 8 7 7 9
22 20 20 20 19 20 21 21 21 20 20 19 19 18 18 18 18 18 18 18 17 17 16 16 20 24 21 18 17 15 13 10 8 8 8 8 8 8 8 9 10 10 9 10 9 9 9 10 10 10 10 9 8 7 7 8 7 6 5 4 3 3 2 2 2 1 2 2 2 1 1 2 2 2 3 5 5 5 5 5 6 7 7 7 9
24 24 24 23 22 22 22 22 21 22 22 22 21 19 18 18 18 19 19 19 19 18 17 15 18 23 21 20 18 16 14 11 9 9 8 7 8 8 8 8 8 9 9 10 10 9 10 10 10 10 10 10 9 8 7 7 7 6 6 6 5 4 4 4 3 3 3 2 1 1 2 2 2 3 3 5 4 3 4 4 5 5 6 8 9
24 24 25 24 23 22 23 24 23 22 22 23 22 21 19 19 19 20 19 19 19 20 21 18 18 22 23 22 20 18 15 13 11 10 9 7 7 8 8 8 8 8 9 9 10 10 10 10 10 11 12 11 10 9 8 8 8 8 7 7 6 5 5 5 4 4 3 2 1 1 2 2 2 3 3 5 4 4 4 5 5 6 7 8 9
25 25 26 27 27 26 25 25 23 22 23 23 22 22 22 21 21 21 21 20 19 20 21 21 19 20 24 24 22 20 18 15 13 12 10 8 7 7 8 9 8 8 8 9 10 10 11 11 11 13 13 12 11 10 9 9 8 8 8 7 6 6 5 4 4 4 3 3 1 1 2 2 2 2 3 4 4 4 5 5 6 7 8 9 10
27 28 29 29 29 29 30 28 24 22 22 23 23 23 23 23 22 22 22 21 20 19 20 20 20 20 23 25 23 21 19 17 14 13 11 9 7 7 7 8 8 7 8 8 9 11 11 11 12 13 13 13 12 11 10 10 9 9 8 7 6 6 5 4 4 4 3 3 2 1 2 3 2 2 3 4 4 4 5 6 7 8 8 9 9
27 28 28 28 28 29 30 29 26 23 20 21 23 24 24 23 22 22 22 22 22 21 20 20 20 19 21 24 24 23 21 19 16 14 13 11 9 8 8 8 8 7 7 7 9 11 12 12 13 14 14 14 14 12 12 11 10 9 8 7 6 6 5 5 4 4 3 3 3 3 3 3 2 2 3 3 4 5 6 6 7 8 8 8 8
25 25 25 25 25 26 27 28 28 26 21 18 21 24 24 22 21 21 22 22 23 22 21 22 21 19 19 23 25 24 23 21 19 15 14 13 11 10 9 9 8 7 6 6 8 11 13 13 14 15 15 15 14 14 13 12 11 10 9 8 7 7 6 6 5 4 4 3 3 3 4 2 1 1 2 3 4 5 6 6 7 7 7 8 8
26 25 24 23 23 24 25 26 27 27 23 18 18 21 23 22 20 20 20 20 21 22 22 22 23 22 20 19 23 25 24 22 20 18 16 15 15 13 11 10 9 7 5 6 8 10 12 14 14 15 16 16 15 14 14 14 13 11 11 10 9 8 8 7 6 6 5 5 4 4 4 3 1 1 2 3 4 5 6 6 7 7 7 8 8
26 25 26 26 25 24 23 23 23 25 23 20 18 19 22 21 20 19 19 19 19 19 20 21 22 23 22 20 20 25 28 25 22 21 20 18 17 16 13 11 11 9 6 5 7 9 12 14 15 15 16 16 15 15 15 15 14 13 12 12 11 10 9 8 7 7 7 7 6 6 5 4 2 2 2 3 4 4 5 6 6 6 7 7 7
22 23 25 26 25 24 21 19 20 22 22 20 18 18 20 21 21 20 19 19 19 18 17 18 20 22 22 22 21 22 26 27 24 22 22 21 20 18 16 14 12 10 7 6 6 8 11 14 15 15 15 16 15 15 15 16 15 15 14 13 12 11 10 9 9 8 8 8 8 7 5 4 3 3 2 2 3 4 5 5 5 5 5 5 5
21 21 21 21 21 20 18 18 19 20 21 20 18 18 20 21 22 22 20 18 19 19 18 17 17 19 19 20 22 21 20 24 25 23 22 24 24 21 18 16 15 12 10 8 6 7 9 13 15 16 15 16 15 15 15 16 16 16 16 14 13 12 12 11 10 10 9 9 8 7 6 5 4 4 3 3 3 4 5 5 4 4 4 4 4
21 21 21 21 21 20 18 17 19 20 20 19 18 18 19 20 21 22 21 18 17 18 19 18 17 18 18 17 19 21 20 19 22 24 23 25 27 25 22 20 17 15 13 10 8 7 8 11 14 16 16 15 15 15 15 15 17 17 17 16 15 14 13 12 11 11 10 9 9 8 7 6 5 5 4 3 3 4 4 5 4 4 4 4 4
23 23 24 24 23 23 21 18 18 19 19 18 17 17 18 19 20 22 22 20 17 16 16 17 17 17 17 17 16 18 20 20 20 23 24 25 27 27 26 23 20 18 15 13 11 8 7 9 12 14 15 15 15 15 14 15 16 17 18 17 16 16 15 13 13 12 11 10 9 8 8 7 6 6 5 4 3 4 4 4 4 3 4 4 4
23 23 24 25 25 24 23 21 19 18 18 17 16 16 16 17 19 22 23 22 19 16 15 15 15 16 17 17 15 15 19 20 21 23 23 24 27 28 28 26 23 20 18 16 14 11 8 8 10 11 13 15 15 15 14 15 16 17 17 17 17 16 16 15 14 13 12 11 10 8 8 7 7 6 6 5 4 4 4 4 3 3 4 4 3
23 23 23 24 24 23 23 22 22 20 19 17 16 15 15 15 18 21 22 23 22 19 16 15 14 14 16 15 14 15 17 19 21 21 16 16 22 29 31 29 26 24 21 19 17 14 11 9 9 9 11 14 15 15 15 15 15 15 17 17 17 16 16 16 15 13 13 12 10 9 8 7 7 7 6 5 4 5 5 4 4 4 4 3 3
23 22 23 23 24 23 23 22 23 22 21 19 17 15 15 15 17 19 21 23 24 21 18 15 13 13 14 15 16 17 18 17 19 19 12 8 15 24 31 31 29 27 25 22 19 16 14 13 10 9 10 12 14 16 16 15 15 15 15 16 16 16 16 15 15 14 13 12 11 10 9 8 7 7 6 5 5 5 5 4 4 4 4 3 2
22 23 23 24 24 24 23 23 23 22 22 21 19 17 15 16 17 19 20 22 23 23 19 16 14 14 14 14 15 18 20 19 17 17 13 6 7 17 27 31 32 31 29 25 22 20 18 16 13 10 10 11 13 15 16 16 16 15 15 15 15 16 16 15 15 14 14 13 13 11 10 9 8 7 7 6 6 6 5 4 4 4 4 3 2
21 22 22 22 22 23 23 23 22 22 22 21 20 18 17 15 17 19 20 20 22 23 21 18 16 15 14 13 13 15 18 20 18 16 14 7 4 11 21 28 31 34 32 28 25 23 20 18 16 13 11 11 12 13 15 16 16 16 15 15 15 15 15 14 14 14 14 14 13 12 11 10 9 9 8 7 5 5 5 4 3 3 3 3 2
21 21 21 21 21 21 21 22 21 21 21 21 20 19 17 16 15 17 19 20 20 21 22 20 18 16 15 13 13 14 15 17 18 17 16 13 10 9 14 21 27 32 34 30 27 26 23 20 18 16 13 11 12 13 13 14 15 16 16 16 15 15 14 14 13 13 14 14 13 13 12 10 10 10 8 6 5 5 5 4 4 3 3 3 2
21 21 21 21 21 21 20 20 20 20 21 20 20 20 18 17 16 16 17 18 19 20 21 21 19 18 16 14 14 14 13 13 15 16 16 17 15 11 7 11 20 29 33 32 30 28 26 24 21 18 16 13 12 12 12 11 12 14 15 16 16 15 15 14 13 13 13 13 12 12 12 11 11 10 8 6 6 5 5 4 4 3 3 3 2
22 22 21 22 22 22 21 21 20 20 20 20 19 19 19 18 18 17 16 17 17 18 20 21 20 19 17 15 14 13 12 11 13 14 15 15 15 13 9 7 12 23 29 32 34 32 28 26 24 21 19 16 14 11 10 10 10 11 13 14 15 15 15 14 13 13 12 11 11 11 11 11 10 10 9 8 7 6 5 5 4 4 3 3 2
24 23 23 23 23 23 23 22 21 21 20 20 20 19 19 18 18 18 18 18 18 18 19 21 21 19 17 16 15 14 12 10 11 12 13 14 14 13 12 9 8 13 20 27 34 34 30 27 26 24 21 19 16 12 10 10 10 9 10 12 13 14 14 13 13 13 12 10 10 10 11 11 10 9 9 9 8 7 6 5 4 4 4 3 2
25 25 24 24 24 24 24 23 23 22 21 21 20 20 19 19 18 17 18 19 20 20 20 22 22 21 19 17 17 17 15 12 10 11 12 14 15 15 13 11 9 8 10 19 27 30 29 28 27 26 23 21 18 15 12 11 10 9 10 11 11 12 13 13 14 14 12 10 10 11 11 10 9 9 9 9 8 7 7 6 5 5 4 3 3
25 25 25 24 24 24 24 23 23 22 21 21 20 19 19 19 19 19 18 18 19 20 21 22 23 23 22 20 18 18 19 17 13 11 12 13 14 15 15 15 13 8 7 14 21 25 28 29 28 27 26 23 20 18 15 13 12 11 10 10 10 11 12 12 14 14 12 11 11 11 11 10 9 9 10 9 8 8 8 7 6 5 4 4 4
26 25 25 24 24 24 24 24 24 23 23 22 21 20 18 17 17 18 19 18 18 18 19 21 22 24 24 22 19 18 20 21 19 15 13 14 14 13 14 15 14 10 8 10 15 20 27 30 29 27 26 24 23 22 20 17 15 13 12 11 11 11 11 12 14 14 12 11 11 11 11 11 9 9 10 9 8 8 8 7 6 5 5 4 4
26 26 25 25 25 24 24 24 24 24 24 24 23 22 21 19 17 15 16 17 18 18 18 18 20 22 23 23 21 19 20 22 23 20 16 15 14 13 11 12 13 13 10 10 12 14 22 29 29 27 27 27 26 24 23 21 19 17 15 13 12 12 12 13 14 13 12 11 11 12 12 11 10 9 9 9 8 7 8 7 6 6 5 5 5
26 26 27 27 26 26 26 25 25 25 24 25 24 23 23 22 21 18 15 15 17 18 19 18 18 19 21 21 21 20 20 23 24 23 19 17 15 15 14 12 13 14 13 12 12 11 14 22 24 24 26 27 25 24 25 25 23 20 18 15 13 13 13 13 12 11 10 11 11 12 12 12 10 9 9 8 8 8 8 7 6 5 5 5 5
26 27 27 28 28 28 27 27 27 26 25 24 25 24 24 23 23 23 20 17 15 16 17 19 19 19 19 20 20 19 20 22 24 24 22 19 16 16 16 15 14 15 15 14 13 12 10 12 15 18 20 21 22 23 25 28 27 24 21 18 16 14 13 12 11 11 11 11 11 12 12 12 11 10 9 9 9 8 8 7 7 7 6 6 6
25 25 26 27 28 28 28 28 27 27 26 25 24 24 24 24 23 23 23 21 19 16 15 16 18 19 20 21 20 19 19 21 23 24 23 21 18 14 13 12 13 14 14 14 12 11 11 10 11 13 14 15 16 19 23 29 31 28 24 21 18 16 14 11 11 11 12 10 11 12 12 12 12 11 10 10 10 9 9 8 8 9 9 8 8
24 25 26 27 28 28 28 28 28 27 26 25 25 24 25 25 24 23 22 22 22 21 18 16 16 17 19 21 21 20 20 20 22 23 24 23 20 16 13 12 14 14 14 14 14 12 11 10 10 10 10 10 11 14 21 29 34 31 27 24 21 18 15 13 11 12 12 11 11 11 12 12 12 11 10 10 10 11 10 9 9 10 10 10 10
26 27 28 29 30 30 30 29 28 26 25 25 25 25 24 24 24 23 22 21 22 22 21 19 17 16 16 18 20 21 21 21 22 23 24 23 21 18 15 15 15 15 14 15 16 15 13 12 11 10 9 9 9 11 17 27 33 31 28 26 24 21 18 16 14 13 12 11 11 11 11 12 12 12 11 11 11 11 11 10 9 9 10 11 11
28 29 30 31 31 31 31 30 28 26 24 24 24 24 24 23 23 22 21 20 20 20 20 19 19 18 15 15 17 20 21 21 21 21 22 22 22 20 18 17 17 16 15 15 15 16 15 15 13 11 10 10 10 10 13 22 28 29 28 27 25 24 22 20 18 16 13 11 11 11 12 12 12 12 12 12 12 12 12 11 10 9 9 10 11
28 29 29 30 31 31 31 31 29 27 25 24 24 25 25 24 22 21 19 17 18 18 18 17 18 19 17 13 13 17 20 21 20 19 20 21 22 21 19 19 18 17 16 15 15 15 16 15 14 14 13 13 13 13 12 14 19 25 28 29 27 26 25 23 21 19 16 13 12 12 12 12 12 12 12 12 13 13 13 12 11 11 10 11 12
28 28 28 29 30 30 31 31 29 27 26 25 25 26 26 25 23 21 19 17 15 15 16 15 15 16 17 15 13 14 16 18 18 18 19 21 22 21 20 19 18 17 16 16 16 15 15 15 15 15 14 14 15 16 15 14 13 17 25 30 30 28 27 26 24 22 19 17 15 14 13 14 13 13 13 13 13 13 13 13 13 12 12 12 12
28 28 28 28 28 29 29 29 29 28 27 26 26 26 26 26 25 23 20 18 16 15 14 13 12 13 14 13 13 14 15 14 15 16 17 18 21 22 20 19 18 17 16 16 16 16 15 15 15 15 14 14 15 15 16 16 14 14 20 29 32 31 29 28 27 26 24 21 19 17 15 15 15 14 13 14 15 14 14 14 14 13 13 13 13
28 28 28 28 27 27 28 28 28 28 27 26 25 25 26 27 27 24 21 18 16 15 14 11 9 9 9 8 10 14 15 13 12 13 14 15 17 19 19 18 17 16 15 15 16 17 17 16 16 16 15 15 15 15 16 17 16 15 18 27 33 33 29 27 28 30 28 25 23 21 19 17 16 16 15 15 15 15 15 15 15 14 14 13 13
28 28 28 27 27 27 27 27 27 27 26 25 25 25 25 27 28 26 22 18 16 15 14 11 8 7 8 8 10 14 14 12 11 11 11 12 13 15 17 17 17 16 15 15 15 16 17 18 17 18 18 17 17 16 16 17 18 18 18 24 32 34 29 26 28 32 32 29 27 24 22 19 18 18 17 16 15 15 15 15 15 15 15 14 14
27 27 26 26 26 26 26 26 26 26 25 25 25 24 25 26 27 25 23 20 18 16 14 12 10 8 6 5 7 10 12 11 10 9 9 10 11 13 14 15 16 15 15 15 14 14 16 18 18 18 18 19 18 18 17 17 18 19 18 21 28 33 32 29 27 27 29 31 30 27 24 22 20 19 19 17 16 15 15 15 15 15 16 15 14
26 25 25 25 25 25 25 25 25 24 24 24 23 23 23 25 25 24 22 20 18 16 14 12 11 10 6 2 2 4 8 11 11 9 9 8 8 9 11 13 14 15 15 15 15 14 14 16 17 18 18 19 20 20 19 18 19 21 21 22 26 31 33 33 29 25 26 31 32 30 27 24 21 20 19 19 18 17 16 16 16 16 16 16 15
25 25 24 24 23 23 23 24 24 23 23 23 22 22 22 23 24 24 22 19 17 16 14 12 11 10 8 5 5 7 8 9 9 8 8 8 8 8 9 10 11 13 14 14 14 14 15 16 16 17 17 18 19 21 22 20 20 21 23 24 26 30 33 33 31 27 26 28 31 31 30 26 22 21 20 20 20 19 18 18 17 17 16 16 16
25 24 24 23 23 22 22 23 23 23 23 22 22 22 22 22 23 23 23 20 18 16 15 13 11 10 9 8 8 8 8 7 7 7 7 7 9 10 10 10 9 9 9 9 10 11 12 15 16 16 17 18 19 21 23 23 21 21 23 24 25 27 30 32 31 28 25 24 26 29 29 28 25 23 22 22 22 21 20 20 19 18 18 17 18
24 23 23 23 22 22 21 21 21 21 22 22 22 22 22 21 21 21 21 21 19 17 16 15 13 11 10 9 9 9 9 9 10 10 9 8 9 10 10 10 9 7 7 8 10 10 10 11 13 13 14 17 19 21 23 24 23 21 22 24 24 24 26 28 29 27 25 24 23 24 26 28 28 26 24 22 22 22 22 21 20 19 19 19 19
23 23 22 22 22 21 21 21 20 20 20 21 21 22 21 20 20 19 19 19 19 18 17 17 16 15 13 10 9 10 11 11 12 12 12 12 11 11 10 9 8 8 9 11 12 12 11 11 13 13 13 14 17 21 24 25 25 23 22 23 25 25 25 26 27 26 25 24 24 24 24 25 27 28 27 24 23 23 22 22 22 21 21 21 20
22 22 22 22 21 21 21 20 20 20 20 20 20 21 21 20 19 18 17 17 18 17 17 17 18 17 16 14 12 11 11 11 12 12 13 14 13 12 11 10 10 10 11 11 11 11 11 9 9 10 11 14 17 19 22 24 24 23 22 23 25 27 28 27 28 28 26 25 25 25 25 23 24 26 28 28 26 25 24 23 23 23 23 22 21
22 22 21 21 21 21 21 20 20 20 20 19 19 20 20 20 19 18 17 17 17 17 16 16 16 17 17 17 16 14 13 12 11 12 12 13 13 13 12 12 12 12 11 11 11 11 11 9 7 5 7 10 13 16 19 21 21 21 21 22 23 25 26 27 28 30 30 29 27 26 26 25 24 25 26 28 29 28 26 24 24 24 23 23 23
Wind_Direction
335 335 334 334 333 333 335 334 330 323 313 308 308 306 304 301 295 289 286 286 284 278 272 268 266 266 266 265 265 271 283 291 293 296 299 295 287 279 274 267 261 263 266 266 265 263 258 255 260 261 260 265 266 262 256 246 246 254 260 270 281 290 303 326 343 5 22 19 17 20 14 9 8 327 323 349 353 334 337 351 354 356 359 3 12
331 331 331 330 329 328 329 330 331 328 319 314 311 309 308 305 299 296 293 290 287 281 273 263 259 260 260 254 251 258 272 282 289 295 301 299 290 283 276 267 260 257 259 263 263 258 249 252 261 266 265 265 263 263 260 248 247 253 254 256 261 266 289 332 342 357 9 6 8 10 359 7 9 321 325 340 335 331 348 355 355 1 5 5 17
327 327 327 328 329 328 326 325 326 327 324 319 314 312 311 309 302 296 294 294 290 280 269 262 259 257 253 247 242 244 258 271 283 294 303 300 287 281 277 267 257 252 249 252 258 256 242 242 254 262 264 261 254 254 257 250 244 246 241 237 239 248 288 338 337 343 347 349 8 12 352 10 9 329 325 326 330 350 359 353 356 7 8 6 18
330 327 326 328 331 332 331 329 326 325 324 321 320 318 315 311 305 298 295 295 291 277 269 267 260 249 243 245 242 237 244 259 276 293 301 299 287 278 276 269 258 251 243 240 247 251 242 235 243 250 254 254 245 234 238 239 230 223 221 225 238 262 294 310 320 333 334 345 22 21 351 9 12 342 335 336 343 356 358 352 358 8 7 4 16
334 329 327 327 331 333 333 332 330 328 325 323 322 321 318 314 310 307 304 301 294 281 274 271 257 240 234 240 243 240 239 246 264 287 297 298 293 282 275 270 262 252 243 238 238 241 238 232 233 237 239 244 240 216 212 217 211 206 210 228 260 278 283 279 303 325 318 333 9 13 349 3 11 353 354 1 352 347 352 353 354 2 5 4 17
334 332 332 333 333 330 327 326 326 328 329 328 327 325 322 319 316 315 313 310 301 291 284 273 250 232 226 233 241 244 239 239 253 273 291 300 300 291 277 268 261 253 245 240 237 234 234 231 228 228 229 234 236 214 199 204 204 199 198 213 253 267 259 244 268 287 263 293 326 334 347 11 19 360 6 20 2 342 348 351 346 352 0 7 21
328 327 327 329 329 327 325 323 321 322 324 326 326 324 322 320 318 317 315 312 306 298 294 277 242 225 222 227 237 244 242 240 248 261 279 297 303 300 286 269 260 253 246 242 239 234 233 230 225 224 224 228 233 224 204 198 197 194 189 190 203 205 201 204 196 209 232 250 273 296 347 11 25 14 17 34 18 339 343 351 340 343 357 15 26
327 326 324 323 323 322 322 323 322 321 320 320 320 318 315 314 314 315 313 311 306 297 291 274 238 224 223 226 232 240 240 239 245 253 264 285 301 305 295 279 265 253 246 244 242 239 236 232 224 219 221 223 223 220 207 193 187 189 192 192 192 190 193 190 178 191 218 236 261 313 2 4 20 22 21 36 28 342 349 359 345 349 6 21 28
326 326 324 323 322 320 318 318 319 320 319 318 316 312 309 308 309 311 312 310 306 297 289 279 252 230 224 226 229 231 234 240 246 247 253 269 292 307 306 293 275 254 245 242 242 242 240 234 224 217 218 220 219 213 205 196 188 187 193 194 194 197 198 192 184 192 203 216 255 338 355 354 23 26 17 31 25 354 3 7 357 5 14 21 27
320 319 318 319 318 314 312 312 314 315 314 313 312 310 307 306 304 306 308 308 307 301 294 290 276 247 228 225 227 225 226 236 246 248 250 258 276 301 311 300 283 261 246 240 238 240 240 235 226 219 218 220 220 214 207 202 196 192 192 193 195 200 202 199 194 195 202 210 217 334 331 326 20 31 16 25 19 2 10 8 4 13 17 19 22
313 312 313 314 312 309 308 309 310 309 305 303 304 304 304 304 303 302 302 304 306 306 301 296 286 264 241 231 229 226 223 226 236 246 250 254 266 288 305 302 286 268 253 245 239 238 238 236 229 221 218 220 221 218 212 208 204 200 196 195 198 204 206 205 202 197 199 206 204 217 269 288 342 18 14 16 12 11 15 8 7 14 16 19 19
307 307 308 309 309 309 310 312 314 313 305 298 295 295 297 300 301 300 298 297 298 301 304 300 291 273 251 238 233 229 225 221 223 236 248 253 259 270 286 298 293 275 258 249 243 240 237 235 232 225 220 220 222 221 217 214 209 206 205 205 207 212 215 213 213 216 211 210 215 230 248 270 336 6 2 359 2 16 19 11 10 13 13 19 17
309 308 307 306 306 308 310 314 318 319 316 305 294 293 296 298 299 297 295 296 294 293 297 299 298 287 261 243 234 231 230 226 221 224 237 246 252 258 267 282 291 284 266 250 243 241 237 233 232 229 225 222 220 218 218 217 214 210 209 213 217 219 224 226 226 233 237 235 234 240 252 267 316 335 330 340 357 16 20 14 13 11 11 17 15
317 314 312 309 304 303 308 315 319 320 320 315 303 298 298 301 302 298 293 294 296 294 292 293 296 296 284 261 243 235 235 235 229 223 227 234 241 248 254 264 277 284 278 258 245 242 240 235 231 230 228 224 219 217 217 218 217 215 212 214 219 221 225 230 233 238 243 246 247 246 253 263 268 282 311 337 354 8 16 13 12 12 15 19 18
319 316 317 317 314 314 317 321 320 318 320 322 314 304 300 302 305 303 297 296 297 298 296 292 291 295 299 294 271 246 236 236 234 228 226 229 233 239 243 251 263 272 278 268 250 243 243 240 234 230 229 226 220 216 219 219 218 219 219 218 219 222 226 230 233 239 242 244 246 246 248 257 266 275 305 335 349 359 6 8 11 15 19 25 24
322 320 322 326 329 330 331 326 319 317 320 325 322 310 301 299 302 304 304 303 302 303 303 298 295 295 298 301 295 268 240 234 237 236 231 229 230 233 236 242 251 258 265 268 254 241 240 239 237 234 230 229 224 217 219 221 220 221 224 224 223 224 227 231 235 241 245 247 250 251 252 260 268 278 299 330 346 353 354 359 8 11 15 29 31
331 329 329 331 333 333 330 322 317 317 319 323 325 317 307 302 301 303 307 311 310 308 307 305 302 303 301 298 299 290 261 242 241 242 237 232 231 230 230 234 241 246 251 260 256 242 237 236 236 234 231 231 228 221 219 222 222 223 225 225 225 225 225 228 234 241 245 248 254 259 264 270 276 282 301 328 339 343 343 349 2 1 358 19 33
337 335 334 334 334 332 328 320 314 314 315 319 324 322 314 309 305 302 307 315 317 313 313 312 308 308 310 306 297 293 286 268 254 247 240 232 230 230 228 227 233 238 240 247 251 242 233 231 233 232 229 228 228 224 222 223 224 225 226 226 226 227 226 227 231 237 242 246 252 259 267 275 281 287 301 317 324 329 333 344 357 352 343 2 22
340 339 337 337 337 337 336 329 317 310 309 314 319 317 312 309 304 301 304 312 316 316 315 316 315 312 312 314 309 296 289 283 272 262 249 232 224 229 230 227 227 232 234 236 242 242 232 228 230 230 228 227 226 224 224 225 226 228 230 229 227 227 228 229 230 233 238 243 249 258 268 278 285 293 300 306 314 322 326 338 349 338 330 355 21
340 339 337 337 339 340 340 336 327 317 311 309 309 307 305 301 297 298 301 305 308 310 310 310 314 316 313 314 323 317 298 283 273 269 261 241 225 225 229 229 227 228 230 231 233 237 235 228 227 228 227 226 225 223 223 224 227 231 234 234 232 230 231 233 234 236 239 243 248 255 265 276 285 291 295 299 309 314 314 324 331 321 319 347 22
337 337 337 338 341 343 342 338 334 330 324 316 307 299 295 293 292 293 297 300 303 306 309 308 309 315 315 310 312 317 310 290 273 269 269 255 237 227 224 226 228 227 227 227 227 229 233 230 225 224 224 224 224 222 222 223 225 230 235 237 236 235 236 238 240 242 244 247 250 255 261 269 275 280 286 291 299 299 297 306 317 312 315 335 11
336 338 340 342 342 343 344 342 339 338 335 331 321 305 292 285 284 287 291 295 299 301 306 310 311 313 313 311 309 310 313 306 283 270 267 268 256 238 224 221 225 226 224 223 222 223 229 229 223 220 221 223 223 222 221 221 223 227 234 238 238 238 239 241 243 246 248 251 253 254 258 261 264 269 274 275 276 280 285 299 309 309 313 330 360
337 339 341 342 341 341 342 344 343 341 341 339 334 325 309 290 281 281 284 289 293 297 300 303 304 304 305 309 313 313 317 319 303 278 261 247 265 253 231 220 222 224 221 218 217 219 226 227 222 218 218 218 220 222 222 220 220 224 230 236 239 240 241 242 244 246 250 252 252 253 254 257 260 263 265 263 266 275 286 301 308 304 310 324 343
335 337 339 338 337 338 341 343 343 342 341 340 338 337 329 311 292 282 280 283 288 294 299 298 295 295 298 303 307 310 316 321 317 297 272 248 274 265 235 220 222 224 218 213 213 216 222 226 222 217 215 213 215 219 221 221 219 221 226 231 235 239 241 242 244 246 249 250 250 251 252 255 256 257 259 263 270 278 283 288 291 294 299 307 317
334 336 337 335 334 336 340 342 343 343 341 339 338 338 337 329 312 294 285 282 283 287 294 297 294 291 292 297 299 302 310 315 317 312 291 275 288 283 231 219 228 227 217 211 213 214 217 221 222 219 214 213 214 215 217 221 222 221 223 226 230 234 237 239 242 245 250 252 253 253 254 254 253 255 258 263 267 268 268 270 276 282 285 289 302
334 335 334 332 333 334 337 339 342 343 344 342 338 336 336 335 327 313 301 291 285 285 290 294 295 293 290 293 294 294 300 305 310 316 308 292 293 296 258 233 236 229 217 211 211 214 214 215 218 219 216 214 215 213 211 216 221 222 224 224 227 230 231 233 236 239 244 249 252 256 257 256 256 259 259 256 252 249 250 254 259 265 270 279 296
332 332 330 329 330 331 333 335 337 340 342 343 340 337 336 335 330 324 319 309 297 291 290 291 293 293 289 290 291 288 291 296 300 308 312 305 298 293 291 276 241 228 222 215 211 214 216 214 213 216 216 215 215 211 206 209 214 220 224 224 225 228 229 230 233 235 236 240 245 252 255 256 258 260 260 256 251 243 237 235 238 248 259 268 276
327 328 326 325 326 327 329 331 333 335 336 337 339 339 337 335 330 323 322 321 314 306 298 294 294 294 291 291 292 289 286 287 294 300 304 304 300 291 291 296 268 240 230 220 214 215 217 216 214 214 215 215 215 210 206 209 211 216 222 223 224 225 227 228 231 232 232 232 234 239 246 248 249 250 251 251 249 243 236 231 227 234 246 251 250
325 325 324 322 321 321 322 323 325 328 329 329 332 336 336 335 333 326 320 317 314 311 307 302 300 298 296 293 292 292 289 283 286 295 298 299 300 296 289 287 288 276 242 222 217 218 220 219 216 213 212 212 214 213 212 213 214 215 218 221 221 222 223 225 229 229 228 227 227 230 235 240 239 238 238 239 237 233 230 227 222 224 230 234 234
327 328 326 324 321 318 317 317 318 319 321 321 322 327 331 332 332 330 326 318 309 303 301 301 299 298 296 293 290 292 293 290 288 291 294 294 296 297 290 279 278 287 264 231 223 222 222 221 218 213 210 207 208 212 215 216 216 216 217 219 220 221 220 222 227 227 224 222 224 227 230 231 230 229 232 233 228 225 226 224 219 219 222 224 224
333 334 332 330 327 323 319 317 315 314 315 315 314 315 319 323 326 327 327 323 314 304 296 293 290 290 292 291 286 283 285 287 287 286 287 288 287 291 293 281 270 274 278 259 243 232 223 220 219 216 211 206 204 206 212 216 217 218 219 219 219 220 220 220 223 225 220 217 220 225 228 228 225 225 229 231 225 222 224 223 216 213 217 219 217
340 341 341 339 336 333 328 323 319 316 313 312 311 309 308 310 314 318 319 319 317 311 302 291 284 283 286 287 284 276 272 276 280 280 281 283 280 280 288 282 266 261 268 276 275 252 224 215 217 219 215 210 206 203 206 213 217 218 217 216 216 217 219 221 223 223 219 213 214 221 227 226 221 221 227 230 224 219 222 223 215 209 211 213 213
346 346 346 345 342 339 336 331 327 322 317 313 311 309 306 303 302 304 309 312 313 313 310 303 292 283 281 282 282 277 270 271 276 279 280 281 279 276 280 281 269 262 263 271 283 272 226 208 211 217 217 215 214 209 205 207 213 216 215 212 212 214 218 222 224 223 218 212 210 216 223 224 220 217 221 226 225 220 222 222 214 210 211 211 213
349 348 347 346 344 342 339 335 332 329 324 320 316 313 310 306 302 300 301 302 306 309 310 310 306 295 285 280 278 275 269 267 273 279 280 280 279 279 281 281 273 266 264 268 280 283 256 222 219 225 225 222 222 221 214 208 209 214 214 211 209 212 216 218 220 220 218 211 206 210 218 221 218 212 213 221 224 223 221 216 205 203 206 206 212
349 348 347 346 345 343 341 338 336 332 330 327 323 319 315 312 307 304 301 300 301 303 304 303 302 297 291 284 279 273 266 263 267 273 278 278 276 276 281 283 277 268 262 264 272 274 263 247 238 236 230 218 218 228 224 212 207 209 211 209 208 211 214 213 215 219 220 213 206 208 214 218 218 213 210 213 220 223 222 212 200 199 198 193 202
349 349 348 347 346 346 345 343 340 337 335 333 330 326 322 318 315 312 308 303 301 301 301 300 295 290 288 284 279 273 266 262 262 266 272 275 273 269 270 278 281 277 269 269 273 273 268 262 249 236 223 209 215 232 226 211 204 205 209 208 208 210 212 212 214 219 222 217 211 209 212 215 217 214 210 210 215 222 224 215 202 197 194 189 194
349 349 348 348 348 348 348 347 344 342 340 338 335 332 327 323 320 317 313 308 303 299 299 299 297 293 288 283 278 272 266 261 261 262 266 270 270 267 269 277 282 282 277 274 273 271 273 272 259 238 222 215 221 229 216 203 202 206 209 209 208 208 209 211 215 220 223 222 218 214 213 214 215 213 209 208 210 217 224 223 211 199 192 189 191
348 348 348 349 349 349 349 349 349 347 345 342 339 336 333 329 325 320 316 310 303 299 297 296 296 295 292 284 277 273 267 262 260 260 262 265 266 269 273 278 281 280 278 276 272 266 266 271 268 253 236 226 225 223 207 200 203 210 214 214 213 211 209 209 214 218 222 224 224 221 217 215 215 212 209 207 208 213 219 223 218 208 195 189 189
346 347 348 348 348 348 349 350 351 350 348 346 344 342 340 337 331 326 320 311 303 299 297 294 294 296 297 291 278 271 268 265 262 258 257 260 265 270 273 276 278 277 275 275 274 267 264 269 270 262 250 239 233 230 221 208 206 210 214 217 217 214 211 211 213 215 217 220 224 225 220 215 213 211 208 206 206 209 214 219 219 213 200 192 190
345 345 346 346 346 348 349 350 351 350 348 348 348 347 346 344 340 335 329 321 313 307 301 298 295 294 295 296 290 277 270 267 264 259 254 255 260 266 270 272 275 277 275 274 274 272 267 265 265 261 252 243 237 235 235 232 221 211 210 213 215 215 213 213 212 212 214 216 220 222 219 214 212 210 207 206 206 206 209 213 216 214 206 197 194
344 344 344 345 346 348 349 350 352 351 350 350 350 351 352 351 348 345 339 333 329 323 314 309 304 296 296 307 313 301 286 279 275 269 261 256 257 262 267 270 272 274 275 275 276 275 270 264 262 260 255 249 243 239 237 236 233 219 208 206 208 212 215 215 212 210 210 213 217 219 218 214 212 210 207 206 206 206 206 208 211 214 211 204 197
343 343 344 344 346 348 348 350 351 353 353 352 350 351 354 355 352 349 346 344 342 338 331 327 321 307 303 316 320 310 303 302 299 290 279 268 263 262 266 270 272 272 273 275 276 277 274 268 263 260 258 253 248 243 238 236 235 231 217 206 204 208 214 213 209 208 209 210 212 216 217 212 208 208 209 208 206 206 206 207 208 211 213 209 203
342 343 343 344 345 347 349 350 352 352 352 352 351 350 351 352 352 352 352 353 354 351 346 345 340 316 304 308 317 320 322 323 318 310 299 285 274 268 269 270 271 272 272 273 275 276 275 272 268 263 260 257 250 243 240 237 235 236 232 216 207 205 205 202 202 206 208 208 207 210 213 213 208 206 208 209 208 206 206 207 207 209 212 213 209
342 342 343 344 345 347 348 350 351 351 350 350 350 349 348 348 351 355 356 355 357 358 355 353 346 328 317 333 353 351 343 332 322 320 315 298 283 275 274 273 272 272 272 273 275 275 273 270 269 265 262 259 254 247 243 239 233 233 236 228 215 207 202 198 198 201 203 204 205 206 208 210 210 208 207 207 207 207 207 207 208 208 210 213 212
341 342 343 344 345 346 347 349 350 350 350 349 348 348 347 347 350 354 355 353 353 355 357 356 350 340 334 348 15 345 336 331 324 317 312 307 297 285 279 275 272 270 270 270 270 270 267 266 265 262 259 258 255 250 247 243 235 230 229 227 221 214 208 204 202 201 199 200 204 205 205 205 207 210 209 207 206 207 206 206 208 209 209 210 211
340 342 343 344 345 345 346 347 349 350 349 348 347 347 347 347 349 352 353 351 349 349 352 355 353 347 339 321 286 283 300 322 328 319 309 310 311 307 302 294 281 274 274 275 272 267 262 260 260 260 259 257 253 249 248 247 241 234 229 225 221 219 215 211 208 207 203 199 199 202 204 205 205 208 211 210 207 206 207 207 207 209 209 208 209
341 342 342 343 345 345 345 345 347 349 349 349 347 346 346 347 348 350 351 350 348 346 347 349 348 344 339 331 314 297 288 288 297 305 308 305 299 298 305 312 306 293 290 293 292 282 268 259 256 257 257 256 253 248 247 248 247 240 233 228 224 221 219 216 214 213 211 206 201 201 204 206 205 206 210 213 211 208 209 210 209 209 209 209 209
341 342 342 343 344 345 344 344 345 346 348 349 349 347 346 346 346 347 349 350 348 345 345 347 347 343 334 325 317 309 297 281 273 274 280 287 291 291 293 302 309 308 298 294 298 297 284 268 263 262 259 256 253 248 245 246 248 244 236 230 227 225 222 220 218 215 213 213 212 209 207 208 208 207 209 214 216 215 213 212 211 211 212 211 210
342 342 341 342 344 344 343 343 343 344 346 348 349 349 348 346 344 344 346 348 347 347 347 348 348 347 341 330 316 306 298 290 281 272 265 265 274 282 285 286 290 293 290 290 297 305 302 285 274 273 273 268 260 252 246 243 243 242 239 234 230 228 227 226 223 217 212 212 216 215 211 209 211 212 212 214 218 220 219 217 216 215 214 213 213
342 341 341 342 343 343 342 342 342 342 344 346 347 347 348 347 345 344 343 343 345 346 348 348 348 346 344 341 336 324 308 296 287 279 270 264 264 269 273 273 272 278 287 293 299 307 310 300 285 279 278 270 259 249 245 244 241 239 240 240 237 233 231 232 232 227 221 217 218 219 217 214 214 216 217 217 219 221 221 222 222 221 220 218 217
341 341 342 342 342 343 343 342 341 341 342 343 343 343 345 347 346 345 343 341 339 340 342 343 344 343 341 340 341 340 333 319 301 285 275 270 265 261 260 261 265 273 284 293 293 291 290 291 294 296 284 270 254 239 233 237 239 238 240 244 243 236 231 231 234 234 233 231 228 226 225 224 223 222 222 222 221 221 222 224 225 226 225 224 222
Height
3160 3158 3156 3154 3152 3150 3149 3147 3146 3144 3142 3141 3139 3137 3136 3135 3134 3133 3132 3131 3131 3130 3131 3131 3131 3131 3131 3130 3129 3128 3128 3127 3126 3125 3124 3123 3122 3121 3120 3120 3119 3118 3118 3117 3117 3117 3117 3117 3116 3116 3116 3116 3116 3116 3116 3116 3116 3116 3117 3116 3116 3115 3114 3114 3113 3112 3112 3112 3111 3111 3110 3110 3109 3107 3106 3106 3106 3105 3104 3103 3102 3101 3100 3099 3098
3159 3157 3155 3152 3151 3149 3147 3146 3144 3142 3141 3139 3138 3136 3134 3133 3131 3130 3129 3128 3127 3127 3127 3127 3128 3128 3128 3127 3127 3126 3126 3125 3124 3123 3122 3121 3120 3119 3119 3119 3118 3117 3117 3116 3116 3116 3116 3115 3115 3115 3115 3115 3115 3115 3115 3115 3115 3115 3116 3116 3115 3115 3114 3113 3113 3112 3112 3111 3111 3111 3110 3110 3109 3108 3106 3106 3106 3105 3104 3103 3102 3101 3100 3099 3098
3158 3156 3154 3152 3150 3148 3146 3144 3143 3141 3139 3137 3136 3134 3132 3130 3129 3128 3126 3125 3125 3124 3123 3123 3124 3124 3125 3125 3124 3124 3123 3123 3122 3121 3120 3120 3119 3118 3118 3117 3117 3116 3116 3115 3115 3115 3115 3114 3114 3114 3114 3114 3114 3114 3114 3114 3115 3115 3115 3115 3115 3114 3114 3113 3112 3112 3112 3111 3111 3111 3110 3110 3109 3108 3107 3106 3106 3105 3104 3103 3102 3101 3101 3100 3098
3157 3155 3153 3151 3149 3147 3145 3143 3141 3139 3138 3136 3134 3132 3130 3128 3127 3125 3124 3123 3122 3121 3120 3120 3120 3121 3122 3122 3122 3122 3121 3120 3120 3119 3118 3118 3117 3116 3116 3116 3115 3115 3115 3114 3114 3114 3114 3113 3113 3113 3113 3112 3113 3113 3113 3113 3114 3114 3114 3114 3114 3114 3113 3113 3112 3112 3111 3111 3111 3111 3110 3110 3109 3108 3107 3106 3105 3104 3104 3103 3102 3102 3101 3100 3098
3156 3153 3152 3150 3149 3147 3144 3142 3140 3138 3136 3135 3133 3131 3129 3127 3125 3123 3122 3121 3119 3118 3117 3117 3117 3118 3118 3119 3119 3119 3119 3118 3118 3117 3117 3116 3115 3115 3114 3114 3113 3113 3113 3113 3113 3112 3112 3112 3112 3112 3112 3111 3111 3112 3112 3112 3113 3113 3113 3114 3114 3113 3113 3113 3112 3112 3111 3111 3111 3111 3110 3110 3109 3108 3107 3106 3105 3104 3104 3103 3102 3101 3101 3100 3098
3154 3152 3150 3149 3148 3146 3143 3141 3139 3137 3135 3134 3132 3130 3128 3125 3123 3122 3120 3119 3117 3116 3114 3113 3113 3114 3114 3115 3116 3117 3117 3116 3116 3116 3115 3114 3113 3113 3113 3112 3112 3111 3111 3111 3111 3111 3110 3110 3111 3111 3111 3111 3110 3111 3111 3112 3112 3112 3112 3112 3112 3113 3113 3112 3112 3111 3111 3111 3111 3110 3110 3109 3109 3108 3108 3107 3105 3104 3104 3103 3102 3102 3101 3100 3098
3152 3150 3148 3147 3146 3144 3142 3140 3138 3136 3134 3132 3130 3128 3126 3124 3122 3120 3118 3117 3115 3113 3111 3110 3109 3109 3110 3111 3112 3113 3114 3114 3114 3114 3113 3112 3111 3111 3111 3110 3110 3109 3110 3109 3109 3109 3109 3109 3109 3110 3110 3110 3110 3110 3110 3111 3111 3111 3111 3111 3111 3112 3112 3112 3112 3111 3111 3111 3110 3110 3110 3109 3109 3108 3107 3107 3106 3105 3104 3104 3103 3102 3101 3100 3098
3149 3147 3145 3144 3144 3142 3140 3138 3136 3134 3132 3130 3129 3127 3124 3122 3120 3118 3116 3114 3113 3111 3108 3106 3106 3106 3107 3107 3108 3109 3111 3112 3112 3112 3111 3110 3109 3109 3109 3108 3108 3108 3108 3108 3107 3107 3107 3108 3108 3108 3108 3109 3109 3109 3109 3110 3110 3110 3110 3110 3111 3111 3111 3111 3111 3111 3111 3111 3110 3110 3110 3109 3109 3108 3107 3107 3106 3106 3105 3104 3103 3102 3101 3100 3098
3147 3145 3143 3141 3140 3139 3137 3136 3134 3133 3131 3128 3126 3124 3122 3120 3117 3115 3113 3112 3110 3108 3106 3104 3103 3102 3103 3103 3104 3105 3108 3109 3110 3110 3109 3109 3108 3107 3107 3106 3106 3106 3106 3106 3106 3106 3106 3106 3107 3107 3107 3108 3108 3108 3109 3109 3109 3109 3110 3110 3110 3110 3111 3111 3111 3111 3110 3110 3110 3109 3109 3109 3108 3107 3107 3106 3106 3106 3105 3103 3103 3102 3101 3100 3099
3145 3143 3140 3138 3137 3135 3134 3133 3132 3130 3129 3126 3124 3122 3119 3117 3115 3113 3111 3109 3107 3106 3104 3103 3102 3100 3099 3099 3099 3100 3103 3106 3108 3108 3107 3107 3107 3106 3105 3105 3104 3104 3104 3104 3104 3104 3105 3105 3106 3106 3106 3107 3107 3107 3108 3108 3108 3108 3109 3109 3109 3109 3110 3110 3110 3110 3110 3109 3109 3109 3109 3108 3108 3107 3106 3106 3106 3105 3104 3103 3103 3102 3101 3100 3099
3143 3140 3138 3136 3133 3131 3130 3129 3129 3127 3126 3123 3121 3119 3116 3114 3112 3110 3108 3106 3105 3103 3102 3101 3100 3099 3097 3096 3096 3097 3098 3100 3103 3105 3105 3105 3105 3105 3104 3104 3103 3103 3102 3102 3102 3103 3103 3104 3104 3105 3105 3106 3106 3106 3107 3107 3107 3107 3108 3108 3108 3109 3109 3109 3109 3109 3109 3109 3109 3108 3108 3108 3107 3106 3106 3105 3105 3105 3103 3103 3102 3102 3101 3100 3099
3142 3139 3136 3133 3130 3128 3126 3126 3125 3124 3122 3120 3117 3115 3113 3111 3109 3107 3106 3104 3102 3101 3100 3098 3096 3095 3094 3094 3095 3096 3096 3097 3099 3101 3102 3102 3102 3103 3103 3102 3102 3101 3101 3100 3101 3101 3102 3102 3103 3103 3104 3104 3105 3105 3106 3106 3106 3106 3106 3107 3107 3107 3108 3108 3108 3108 3108 3108 3108 3108 3108 3107 3107 3106 3105 3105 3105 3104 3103 3103 3102 3101 3101 3100 3100
3140 3137 3135 3131 3128 3125 3124 3122 3121 3120 3118 3116 3114 3111 3109 3107 3105 3103 3102 3100 3099 3098 3097 3095 3093 3092 3091 3091 3092 3093 3094 3095 3095 3096 3098 3099 3099 3100 3101 3101 3100 3100 3099 3099 3099 3099 3100 3101 3101 3102 3103 3103 3103 3104 3105 3105 3106 3106 3106 3106 3106 3106 3106 3107 3107 3107 3107 3107 3107 3107 3107 3107 3106 3106 3105 3105 3104 3104 3103 3103 3102 3101 3101 3101 3100
3136 3133 3132 3129 3126 3124 3122 3120 3118 3116 3114 3113 3111 3108 3106 3104 3102 3100 3098 3097 3096 3095 3094 3092 3090 3089 3088 3088 3089 3090 3090 3091 3093 3093 3094 3095 3096 3097 3098 3099 3099 3098 3098 3098 3097 3098 3098 3099 3100 3101 3101 3101 3102 3103 3103 3104 3105 3105 3105 3105 3105 3105 3105 3106 3106 3106 3107 3107 3107 3107 3107 3107 3106 3106 3105 3104 3104 3103 3103 3102 3102 3102 3101 3101 3100
3132 3130 3128 3126 3124 3122 3120 3118 3116 3113 3111 3110 3109 3106 3104 3101 3099 3097 3096 3094 3093 3092 3091 3090 3088 3087 3086 3086 3086 3086 3086 3087 3089 3090 3091 3092 3093 3094 3096 3097 3097 3097 3097 3096 3096 3096 3097 3097 3098 3099 3099 3100 3101 3101 3102 3103 3103 3104 3104 3104 3104 3104 3104 3105 3105 3106 3106 3106 3107 3107 3106 3106 3106 3105 3105 3104 3104 3103 3103 3102 3102 3102 3101 3101 3100
3130 3128 3126 3124 3122 3120 3118 3116 3113 3111 3109 3108 3107 3105 3102 3100 3097 3095 3094 3093 3091 3090 3089 3087 3086 3085 3084 3083 3082 3082 3082 3083 3085 3087 3088 3089 3090 3091 3093 3094 3095 3095 3095 3095 3095 3095 3095 3096 3096 3097 3098 3098 3099 3100 3100 3101 3102 3102 3102 3103 3103 3103 3103 3104 3104 3105 3105 3106 3106 3106 3106 3106 3105 3105 3105 3104 3104 3103 3102 3102 3102 3102 3101 3101 3100
3128 3126 3124 3122 3120 3118 3116 3113 3111 3109 3108 3107 3105 3103 3101 3099 3096 3094 3092 3091 3090 3088 3087 3086 3084 3083 3082 3081 3080 3079 3079 3080 3081 3083 3085 3086 3087 3088 3089 3091 3092 3093 3093 3093 3093 3093 3094 3094 3094 3095 3096 3097 3097 3098 3099 3099 3100 3101 3101 3101 3102 3102 3102 3103 3103 3103 3104 3104 3105 3105 3105 3105 3105 3105 3104 3104 3103 3103 3103 3103 3102 3102 3101 3101 3101
3126 3124 3121 3119 3117 3116 3114 3112 3110 3108 3106 3105 3103 3101 3099 3097 3095 3093 3090 3089 3088 3087 3085 3084 3083 3082 3080 3079 3078 3077 3077 3077 3078 3079 3081 3082 3083 3085 3086 3087 3089 3090 3091 3092 3092 3092 3092 3092 3092 3093 3094 3095 3096 3097 3097 3097 3098 3099 3100 3100 3100 3101 3101 3101 3102 3102 3103 3103 3103 3104 3104 3104 3104 3104 3104 3104 3104 3103 3103 3103 3102 3102 3101 3101 3101
3123 3121 3119 3117 3115 3114 3112 3110 3108 3105 3104 3103 3102 3099 3097 3096 3094 3091 3089 3088 3087 3085 3084 3082 3081 3080 3078 3077 3076 3075 3075 3074 3075 3075 3075 3077 3079 3081 3082 3084 3086 3088 3089 3089 3090 3090 3090 3090 3091 3091 3092 3093 3094 3095 3095 3095 3096 3097 3098 3099 3099 3099 3100 3100 3100 3101 3101 3102 3102 3103 3103 3103 3104 3104 3104 3104 3104 3103 3103 3103 3102 3102 3101 3101 3101
3121 3119 3117 3115 3113 3112 3110 3107 3105 3103 3101 3101 3099 3097 3096 3094 3092 3090 3088 3086 3085 3083 3082 3080 3079 3078 3077 3075 3075 3074 3073 3072 3071 3071 3071 3073 3075 3077 3078 3080 3083 3085 3086 3087 3088 3088 3088 3088 3089 3089 3090 3091 3092 3093 3094 3094 3094 3095 3096 3097 3097 3098 3098 3099 3099 3100 3100 3101 3101 3101 3102 3102 3103 3103 3103 3103 3103 3103 3103 3102 3102 3102 3101 3101 3101
3120 3118 3116 3114 3112 3110 3108 3106 3103 3101 3099 3098 3097 3095 3094 3092 3090 3088 3087 3085 3083 3083 3081 3079 3078 3077 3075 3073 3073 3072 3070 3068 3068 3068 3068 3070 3071 3072 3074 3077 3079 3081 3083 3085 3085 3086 3086 3087 3087 3087 3088 3089 3090 3091 3091 3092 3092 3093 3094 3095 3096 3097 3097 3098 3098 3099 3099 3099 3100 3100 3101 3101 3102 3102 3102 3102 3102 3102 3102 3102 3102 3102 3101 3102 3102
3119 3117 3115 3113 3111 3109 3107 3104 3102 3100 3098 3096 3095 3093 3092 3090 3088 3087 3085 3083 3082 3081 3080 3079 3077 3076 3074 3072 3070 3069 3067 3065 3065 3065 3066 3066 3067 3068 3069 3072 3075 3077 3079 3082 3083 3084 3084 3085 3085 3086 3086 3087 3088 3088 3089 3090 3091 3091 3092 3093 3094 3095 3096 3096 3097 3097 3098 3098 3099 3099 3100 3100 3100 3101 3101 3101 3101 3101 3101 3102 3102 3101 3101 3102 3102
3117 3115 3114 3112 3110 3107 3105 3103 3101 3098 3096 3095 3093 3091 3090 3089 3087 3085 3084 3082 3080 3079 3078 3078 3076 3075 3073 3072 3070 3067 3066 3064 3063 3063 3063 3063 3064 3064 3065 3068 3070 3072 3075 3078 3081 3082 3082 3083 3084 3084 3084 3085 3086 3086 3087 3088 3089 3089 3090 3091 3093 3093 3094 3095 3096 3096 3097 3097 3097 3098 3098 3099 3099 3099 3100 3100 3100 3100 3101 3101 3101 3101 3101 3102 3102
3116 3115 3113 3111 3108 3106 3104 3102 3100 3097 3095 3093 3091 3090 3088 3086 3085 3083 3082 3080 3078 3077 3076 3076 3074 3073 3072 3071 3069 3067 3066 3064 3062 3061 3061 3061 3061 3061 3061 3064 3066 3068 3070 3074 3077 3079 3080 3081 3082 3082 3083 3083 3083 3084 3085 3086 3087 3088 3089 3090 3091 3092 3092 3093 3094 3095 3095 3096 3096 3097 3097 3098 3098 3098 3099 3099 3100 3100 3100 3100 3101 3101 3101 3101 3102
3115 3114 3112 3109 3107 3105 3103 3101 3099 3096 3094 3092 3090 3088 3086 3084 3082 3081 3079 3078 3076 3075 3074 3073 3072 3071 3070 3069 3068 3067 3065 3063 3061 3060 3059 3059 3059 3058 3058 3059 3061 3063 3066 3070 3074 3076 3077 3078 3079 3080 3081 3081 3082 3082 3083 3084 3085 3086 3087 3088 3089 3090 3091 3092 3092 3093 3093 3094 3095 3096 3096 3096 3097 3097 3098 3098 3099 3099 3099 3099 3100 3100 3100 3101 3101
3114 3112 3110 3108 3105 3104 3102 3100 3098 3096 3093 3091 3089 3086 3084 3082 3080 3078 3077 3076 3075 3073 3072 3070 3070 3070 3069 3067 3067 3065 3064 3062 3061 3059 3058 3057 3058 3057 3056 3056 3057 3059 3062 3066 3069 3072 3073 3075 3076 3078 3079 3080 3080 3080 3081 3082 3083 3084 3085 3086 3087 3088 3089 3090 3091 3091 3092 3093 3093 3094 3095 3095 3095 3096 3097 3097 3098 3098 3098 3099 3099 3099 3100 3100 3100
3112 3110 3108 3106 3104 3102 3100 3098 3096 3094 3092 3090 3088 3086 3083 3081 3078 3077 3075 3074 3073 3072 3070 3069 3068 3067 3067 3066 3065 3064 3062 3061 3059 3059 3058 3056 3056 3056 3055 3054 3054 3056 3058 3062 3065 3067 3070 3072 3073 3075 3076 3078 3079 3079 3080 3080 3081 3082 3083 3085 3086 3087 3088 3089 3089 3090 3090 3091 3092 3092 3093 3094 3094 3095 3095 3096 3096 3097 3097 3098 3098 3098 3099 3099 3100
3110 3108 3106 3104 3101 3099 3097 3096 3094 3092 3091 3089 3087 3085 3082 3080 3078 3076 3073 3072 3071 3070 3069 3067 3066 3065 3064 3063 3063 3062 3061 3060 3059 3058 3057 3056 3055 3055 3054 3053 3053 3054 3055 3057 3060 3063 3066 3069 3071 3072 3074 3076 3077 3078 3078 3079 3080 3081 3082 3083 3084 3085 3086 3087 3087 3088 3089 3090 3091 3091 3091 3092 3093 3094 3094 3095 3095 3096 3096 3096 3097 3098 3098 3099 3099
3108 3106 3104 3101 3099 3097 3095 3093 3091 3090 3088 3087 3085 3083 3081 3079 3077 3075 3073 3071 3069 3068 3067 3065 3064 3063 3062 3061 3061 3060 3060 3060 3059 3057 3056 3056 3055 3054 3053 3053 3052 3052 3053 3054 3056 3059 3062 3065 3067 3069 3071 3073 3075 3076 3077 3077 3078 3079 3080 3081 3082 3083 3084 3085 3085 3086 3087 3088 3089 3089 3090 3091 3092 3093 3093 3094 3094 3095 3095 3095 3096 3097 3097 3098 3098
3105 3103 3101 3099 3097 3095 3093 3091 3089 3087 3086 3084 3083 3082 3080 3078 3075 3073 3072 3070 3068 3066 3065 3063 3062 3060 3060 3060 3060 3059 3058 3058 3057 3057 3056 3055 3054 3054 3053 3052 3051 3051 3051 3052 3054 3056 3058 3061 3063 3066 3068 3070 3072 3074 3075 3075 3076 3077 3078 3079 3080 3081 3082 3083 3083 3084 3086 3087 3087 3088 3088 3090 3091 3091 3092 3092 3093 3093 3094 3094 3095 3096 3096 3097 3098
3103 3101 3098 3096 3094 3092 3089 3088 3086 3084 3083 3081 3080 3079 3078 3077 3075 3073 3070 3069 3067 3066 3064 3062 3060 3058 3057 3057 3058 3059 3058 3056 3056 3056 3055 3054 3053 3053 3053 3051 3050 3050 3050 3051 3052 3053 3055 3057 3060 3062 3065 3067 3069 3071 3072 3073 3075 3076 3077 3078 3079 3080 3081 3081 3081 3082 3084 3085 3086 3086 3087 3088 3089 3090 3090 3091 3092 3092 3093 3093 3094 3095 3095 3096 3097
3100 3098 3096 3094 3091 3089 3087 3085 3083 3081 3080 3078 3077 3076 3075 3074 3073 3072 3070 3067 3066 3064 3062 3061 3059 3057 3056 3055 3055 3056 3056 3055 3054 3054 3054 3053 3053 3053 3052 3051 3050 3049 3049 3050 3050 3050 3052 3054 3057 3059 3061 3063 3065 3067 3069 3071 3072 3073 3075 3076 3077 3078 3078 3079 3080 3081 3082 3083 3084 3084 3085 3086 3087 3088 3089 3089 3090 3091 3091 3092 3093 3094 3094 3095 3096
3099 3096 3094 3092 3089 3087 3085 3083 3080 3079 3077 3075 3074 3072 3071 3069 3069 3069 3068 3067 3064 3062 3060 3058 3057 3056 3055 3053 3052 3053 3053 3053 3052 3053 3053 3053 3052 3052 3051 3050 3049 3048 3048 3048 3048 3048 3049 3052 3054 3056 3058 3060 3061 3064 3066 3068 3069 3071 3072 3074 3075 3076 3076 3077 3078 3079 3081 3082 3082 3083 3083 3084 3085 3086 3087 3088 3089 3089 3090 3091 3092 3093 3093 3094 3094
3097 3095 3093 3090 3088 3085 3083 3080 3078 3076 3074 3072 3070 3069 3067 3066 3064 3063 3063 3064 3063 3061 3058 3056 3055 3054 3053 3052 3051 3050 3051 3051 3050 3050 3051 3051 3051 3051 3050 3049 3048 3048 3047 3047 3047 3047 3048 3049 3051 3053 3055 3057 3059 3061 3062 3064 3066 3068 3070 3071 3073 3073 3074 3075 3077 3078 3079 3080 3081 3081 3082 3083 3084 3085 3086 3086 3087 3088 3089 3090 3091 3092 3092 3093 3093
3097 3095 3092 3089 3087 3084 3082 3079 3076 3074 3072 3069 3067 3065 3064 3062 3061 3060 3059 3059 3059 3058 3057 3055 3053 3051 3050 3050 3049 3048 3048 3049 3049 3048 3049 3049 3050 3050 3049 3048 3048 3047 3047 3047 3046 3046 3046 3047 3048 3050 3052 3053 3055 3057 3059 3060 3063 3065 3067 3069 3070 3071 3073 3074 3075 3076 3076 3078 3079 3080 3080 3081 3082 3083 3084 3085 3085 3086 3087 3089 3090 3091 3092 3092 3092
3096 3094 3091 3089 3086 3083 3080 3078 3075 3072 3069 3067 3065 3063 3061 3059 3058 3057 3056 3055 3054 3054 3054 3053 3052 3050 3048 3048 3047 3046 3046 3046 3047 3047 3047 3047 3048 3048 3048 3047 3047 3047 3046 3046 3046 3046 3046 3046 3046 3047 3048 3050 3052 3053 3054 3056 3059 3062 3064 3066 3067 3069 3071 3072 3073 3074 3075 3076 3077 3078 3079 3080 3080 3082 3083 3083 3084 3084 3085 3087 3088 3090 3091 3092 3092
3095 3092 3090 3087 3085 3082 3079 3076 3073 3071 3068 3066 3063 3061 3059 3057 3055 3054 3053 3052 3050 3050 3049 3049 3049 3048 3047 3046 3045 3044 3044 3044 3044 3045 3045 3045 3046 3046 3046 3046 3046 3045 3045 3045 3045 3045 3046 3045 3045 3045 3046 3047 3049 3050 3051 3053 3056 3059 3061 3063 3064 3066 3068 3069 3071 3072 3073 3074 3075 3077 3078 3078 3079 3080 3081 3082 3082 3083 3083 3084 3086 3088 3089 3090 3091
3093 3091 3088 3085 3083 3080 3078 3075 3072 3070 3067 3065 3062 3060 3057 3055 3053 3052 3050 3049 3048 3046 3046 3046 3045 3045 3044 3044 3043 3042 3042 3042 3042 3043 3043 3044 3044 3044 3044 3044 3044 3044 3044 3044 3044 3044 3045 3045 3044 3044 3044 3045 3046 3047 3049 3051 3054 3056 3058 3060 3062 3063 3065 3066 3068 3070 3071 3073 3074 3075 3076 3077 3077 3078 3079 3080 3081 3081 3082 3082 3084 3086 3087 3089 3089
3093 3090 3087 3085 3082 3079 3077 3074 3071 3069 3066 3064 3061 3059 3056 3054 3052 3050 3048 3047 3045 3044 3043 3042 3042 3041 3041 3041 3041 3040 3040 3040 3040 3041 3041 3042 3042 3042 3042 3042 3042 3043 3043 3043 3043 3043 3043 3043 3043 3043 3044 3044 3045 3046 3047 3048 3051 3053 3055 3057 3059 3061 3062 3064 3066 3067 3069 3070 3072 3073 3074 3075 3076 3077 3077 3078 3079 3080 3080 3081 3082 3084 3086 3087 3088
3092 3089 3087 3084 3082 3079 3076 3073 3070 3068 3065 3063 3060 3058 3055 3053 3050 3048 3046 3044 3043 3042 3041 3040 3039 3038 3038 3037 3038 3038 3037 3037 3038 3038 3039 3040 3040 3040 3040 3040 3041 3041 3041 3041 3041 3041 3042 3042 3042 3042 3043 3043 3044 3044 3045 3046 3047 3049 3051 3053 3056 3058 3060 3061 3063 3065 3066 3068 3069 3071 3072 3073 3074 3075 3076 3077 3077 3078 3079 3080 3080 3082 3083 3085 3086
3090 3088 3086 3083 3081 3078 3075 3072 3070 3067 3064 3062 3060 3057 3055 3052 3050 3047 3045 3043 3042 3040 3039 3038 3037 3037 3036 3036 3035 3035 3035 3035 3036 3036 3037 3037 3038 3038 3038 3038 3039 3039 3039 3039 3040 3040 3040 3040 3040 3041 3041 3041 3042 3042 3043 3044 3045 3046 3047 3049 3052 3054 3056 3058 3060 3062 3064 3065 3067 3068 3070 3071 3072 3073 3074 3075 3075 3076 3077 3078 3079 3080 3081 3083 3085
3089 3087 3084 3082 3080 3077 3075 3072 3069 3066 3064 3061 3059 3057 3055 3052 3049 3047 3045 3042 3041 3039 3038 3037 3036 3035 3035 3035 3035 3034 3033 3034 3034 3034 3034 3035 3035 3036 3036 3036 3037 3037 3037 3037 3038 3038 3038 3038 3038 3039 3039 3039 3040 3040 3041 3042 3042 3043 3044 3046 3048 3051 3053 3055 3057 3059 3060 3062 3064 3066 3067 3068 3069 3071 3072 3072 3073 3075 3076 3077 3078 3078 3079 3081 3083
3087 3085 3083 3081 3078 3076 3074 3071 3068 3066 3063 3061 3059 3057 3055 3052 3050 3047 3044 3042 3040 3039 3038 3037 3036 3035 3035 3034 3034 3033 3033 3033 3033 3033 3033 3033 3033 3034 3034 3034 3034 3035 3035 3035 3035 3035 3035 3036 3036 3037 3037 3038 3038 3039 3039 3040 3040 3041 3042 3043 3045 3047 3049 3051 3053 3055 3057 3058 3060 3062 3064 3066 3067 3068 3069 3071 3072 3073 3074 3075 3076 3077 3078 3079 3081
3086 3084 3082 3079 3077 3075 3073 3070 3068 3065 3063 3061 3059 3057 3055 3053 3050 3048 3045 3043 3041 3039 3038 3036 3036 3035 3034 3034 3034 3034 3034 3033 3033 3033 3032 3032 3032 3032 3032 3032 3032 3032 3033 3033 3033 3033 3033 3033 3034 3034 3035 3035 3036 3036 3037 3038 3038 3039 3039 3040 3042 3044 3046 3047 3050 3052 3054 3055 3057 3059 3061 3063 3065 3066 3067 3068 3070 3071 3072 3073 3074 3075 3076 3077 3079
3085 3083 3081 3079 3076 3074 3072 3070 3068 3065 3063 3061 3059 3057 3055 3053 3051 3048 3046 3044 3041 3039 3038 3036 3035 3034 3034 3034 3034 3034 3033 3032 3032 3032 3031 3031 3030 3030 3030 3030 3030 3030 3030 3030 3031 3031 3031 3031 3031 3032 3033 3033 3034 3034 3035 3036 3036 3036 3037 3038 3039 3041 3042 3044 3046 3049 3050 3051 3053 3056 3058 3060 3062 3064 3065 3066 3068 3069 3070 3071 3072 3073 3074 3076 3077
3084 3082 3080 3078 3076 3073 3071 3069 3067 3065 3063 3061 3059 3057 3055 3053 3051 3048 3046 3044 3042 3040 3038 3036 3035 3034 3033 3033 3032 3032 3032 3032 3031 3031 3031 3030 3030 3029 3029 3028 3028 3027 3027 3028 3028 3028 3029 3029 3029 3030 3030 3031 3032 3032 3033 3034 3034 3034 3035 3035 3036 3038 3040 3042 3044 3046 3047 3048 3050 3052 3054 3057 3059 3062 3063 3064 3065 3067 3068 3069 3070 3071 3072 3074 3075
3083 3081 3079 3077 3075 3073 3071 3069 3066 3064 3062 3060 3058 3056 3054 3052 3050 3048 3046 3044 3042 3040 3038 3037 3035 3034 3033 3032 3031 3030 3030 3030 3030 3030 3029 3029 3029 3028 3028 3027 3026 3026 3026 3026 3026 3026 3026 3026 3026 3027 3028 3028 3029 3030 3030 3031 3032 3032 3033 3034 3035 3036 3038 3040 3043 3045 3046 3048 3049 3050 3051 3054 3056 3058 3060 3062 3063 3064 3065 3066 3068 3069 3070 3071 3072
3082 3080 3078 3076 3074 3072 3070 3068 3066 3064 3062 3060 3058 3056 3054 3052 3050 3048 3046 3044 3043 3041 3039 3037 3035 3033 3032 3031 3030 3029 3029 3029 3028 3028 3028 3027 3027 3027 3026 3026 3026 3025 3025 3025 3024 3024 3024 3024 3024 3024 3025 3025 3026 3027 3028 3028 3029 3030 3031 3032 3034 3035 3036 3038 3040 3042 3044 3046 3048 3049 3050 3051 3053 3055 3057 3059 3061 3062 3063 3064 3066 3067 3068 3069 3070
3081 3079 3077 3075 3073 3071 3069 3067 3065 3063 3061 3059 3057 3055 3053 3051 3050 3048 3046 3044 3042 3041 3039 3037 3035 3033 3032 3030 3029 3028 3027 3027 3026 3026 3026 3026 3025 3025 3025 3025 3025 3024 3024 3024 3023 3022 3022 3022 3022 3022 3023 3023 3023 3024 3025 3025 3026 3027 3028 3029 3031 3032 3034 3035 3037 3039 3041 3043 3045 3047 3048 3049 3051 3052 3054 3056 3058 3060 3061 3062 3063 3064 3065 3066 3068
3080 3078 3076 3074 3072 3070 3068 3066 3064 3062 3060 3058 3057 3055 3053 3051 3049 3047 3046 3044 3042 3040 3039 3037 3035 3033 3031 3030 3028 3027 3026 3025 3025 3024 3024 3024 3023 3023 3023 3023 3023 3023 3023 3023 3022 3022 3021 3021 3021 3021 3021 3021 3021 3021 3022 3023 3023 3024 3025 3026 3028 3029 3031 3032 3034 3036 3037 3040 3042 3044 3046 3047 3048 3050 3051 3053 3055 3057 3058 3060 3061 3062 3063 3064 3065
3078 3077 3075 3073 3071 3069 3067 3065 3063 3061 3059 3058 3056 3054 3052 3050 3049 3047 3045 3043 3042 3040 3039 3037 3035 3033 3031 3030 3028 3027 3025 3024 3023 3022 3022 3022 3021 3021 3021 3021 3021 3021 3021 3021 3021 3021 3020 3020 3020 3019 3019 3019 3019 3019 3019 3020 3021 3022 3023 3024 3024 3025 3027 3029 3030 3032 3034 3036 3038 3040 3042 3044 3046 3047 3048 3050 3051 3053 3055 3057 3058 3060 3061 3062 3063